Regional Weather Roundup
Issued by NWS

Home | Current Version | Previous Version | Text Only | Print | Product List | Glossary On
Versions: 1 2 3 4 5 6 7 8 9 10 11 12 13 14 15 16 17 18 19 20 21 22 23 24 25 26 27 28 29 30 31 32 33 34 35 36 37 38 39 40 41 42 43 44 45 46 47 48 49 50
000
ASUS45 KSLC 260010
RWRUT

UTAH REGIONAL WEATHER ROUNDUP
NATIONAL WEATHER SERVICE SALT LAKE CITY UT
600 PM MDT SAT MAR 25 2017

UTZ001>011-023>025-260100-

NORTHERN UTAH

CITY           SKY/WX    TMP DP  RH WIND       PRES   REMARKS
BRIGHAM CITY     N/A     46  36  68 SE5       29.99S
HILL AFB       PTSUNNY   41  37  87 S3        29.99R
LOGAN          CLOUDY    44  37  76 S6        29.98S
OGDEN          CLOUDY    41  38  89 VRB3      29.98S
SALT LAKE CITY LGT RAIN  43  38  82 CALM      29.99S
WENDOVER       CLOUDY    51  34  52 S8        29.99F

$$

UTZ011>015-024>027-260100-

CENTRAL/NORTHEAST UTAH

CITY           SKY/WX    TMP DP  RH WIND       PRES   REMARKS
PROVO AIRPORT  LGT RAIN  43  39  87 NW9       29.99S
MOAB/CANYONLAN PTSUNNY   60  30  32 N8        29.81F
DELTA          CLOUDY    43  37  81 NW3       29.98S
PRICE          CLOUDY    45  38  76 NW12      29.89F
RICHFIELD      CLOUDY    48  34  57 W3        29.95S
ROOSEVELT      LGT RAIN  48  37  66 NW8G16    29.90R
VERNAL         LGT RAIN  48  40  73 W18       29.87R

$$

UTZ013>016-019>022-027-260100-

SOUTHERN UTAH

CITY           SKY/WX    TMP DP  RH WIND       PRES   REMARKS
BRYCE CANYON   LGT RAIN  41  31  67 W10       29.95F
CEDAR CITY     LGT RAIN  39  37  92 N8        29.96R WCI  33
MILFORD        LGT RAIN  42  37  82 N10       29.98S
ST GEORGE      CLOUDY    55  41  59 NW8       29.94R
HANKSVILLE     PTSUNNY   59  32  36 W7        29.85S
BLANDING       CLOUDY    50  32  51 W28G37    29.99R

$$

REGIONAL REPORTS     COLORADO/ARIZONA

CITY           SKY/WX    TMP DP  RH WIND       PRES   REMARKS
CRAIG, CO      CLOUDY    55  22  27 SW15G33   29.87R
GRAND JUNCTION CLOUDY    60  28  29 W10       29.85R
RIFLE, CO      CLOUDY    58  26  29 SW18G24   29.85R
MONTROSE, CO   CLOUDY    55  27  34 W17G28    29.88S
CORTEZ, CO     CLOUDY    59  21  23 CALM      29.85F
COLORADO CITY  DRIZZLE   46  41  81 NW9       29.98R
PAGE, AZ       LGT RAIN  59  41  51 W9G18     29.86R
GRAND CANYON   PTSUNNY   49  31  49 W13G32    29.96S
KINGMAN, AZ    MOSUNNY   64  20  18 W12       29.93S
FLAGSTAFF, AZ  PTSUNNY   47  29  49 W14G25    29.98S

$$

REGIONAL REPORTS    NEVADA/IDAHO/WYOMING

CITY           SKY/WX    TMP DP  RH WIND       PRES   REMARKS
LAS VEGAS, NV  PTSUNNY   68  33  27 W13       29.91S
ELY, NY        CLOUDY    42  32  67 NE10      30.01S
ELKO, NV       CLOUDY    51  23  33 W9        29.99S
POCATELLO, ID  MOSUNNY   50  29  44 W16       29.96S
BURLEY, ID     SUNNY     51  22  31 W13G24    29.97S
FORT BRIDGER,  LGT RAIN  39  39  99 NW13      29.95S WCI  31
EVANSTON, WY   LGT SNOW  34  31  88 N10       29.94S VSB 1   WCI  26
ROCK SPRINGS,  LGT RAIN  43  36  76 NW15      29.88R

$$



USA.gov is the U.S. government's official web portal to all federal, state and local government web resources and services.